www.pogodaiklimat.ru

Погода и климат >> Архив погоды >> Аргентина >> Пилар


ПОГОДА в Пиларе

  • Прогноз погоды в Пиларе
  • Монитор погоды в Пиларе

АРХИВ ПОГОДЫ в Пиларе

Время (UTC), дата Ветер
(напр.,м/с)
 
Видим.   Явления Облачность Т
(С)
Тd
(С)
f
(%)
Тe
(С)
Тes
(С)
Комфортность P
(гПа)
Po
(гПа)
Тmin
(С)
Tmax
(С)
R
(мм)
R24
(мм)
S
(см)
06 17.07 С 4 10 км ясно +10.2 +8.4 89 +8 +8 1018.9 979.0
09 17.07 С 4 10 км ясно +9.5 +8.1 91 +6 +6 1018.5 978.4
12 17.07 С 4 10 км 1/0
[Ci fib]
+10.0 +8.2 89 +7 +8 1019.5 979.0 +9.2 +12.0
15 17.07 С 6 10 км 4/0
[Ci fib]
+16.6 +10.0 65 +16 +19 1018.2 978.2
18 17.07 С 7 10 км 5/0
[Ci sp]
+21.6 +9.5 46 +23 +24 комфорт 1014.6 975.0
21 17.07 С 8 10 км 8/0
[Cs]
+19.9 +8.6 48 +20 +20 1013.4 973.8
00 18.07 С 5 10 км 8/0
[Cs]
+14.5 +9.1 70 +13 +13 1014.6 974.6 +10.0 +22.0
03 18.07 С 6 10 км 9/0
[Ac As Ci sp]
+13.1 +7.7 70 +11 +11 1014.1 974.5
06 18.07 С 6 10 км 9/0
[Ac As Ci sp]
+12.4 +6.4 67 +10 +10 1012.3 973.0
09 18.07 В 3 10 км ясно +9.4 +6.2 80 +7 +7 1014.9 975.2
12 18.07 Ю 3 10 км ясно +9.0 +6.2 83 +7 +7 1019.7 979.4 +6.4 +14.5
15 18.07 Ю 8 10 км 8/1 540 м
[Sc Cs]
+15.1 +7.5 60 +13 +14 1022.6 982.5
18 18.07 Ю 7 10 км 4/0
[Ac As Cs]
+16.9 +1.2 35 +16 +18 1022.0 982.0
21 18.07 Ю 4 10 км 5/0
[Ac und]
+16.0 +0.3 34 +15 +15 1022.4 982.1
00 19.07 ЮВ 4 10 км ясно +10.3 -0.7 46 +8 +8 1024.2 983.4 +9.0 +17.7
03 19.07 Ю 2 10 км 3/0
[Ac und]
+11.0 0.0 47 +11 +11 1025.3 985.0
06 19.07 Ю 1 10 км 4/0
[Ac trans]
+6.9 -3.8 46 +7 +7 1023.5 983.0
09 19.07 штиль 0 10 км ясно +4.4 -0.1 73 +4 +4 1020.8 980.2
12 19.07 штиль 0 10 км 3/0
[Ci]
+3.6 +0.5 80 +3 +3 1020.6 979.6 +2.7 +11.0
15 19.07 С 3 10 км 3/0
[Cs]
+15.0 -0.7 34 +15 +21 1018.2 978.1
18 19.07 С 5 10 км 3/0
[Cs]
+18.3 +0.6 30 +18 +21 1015.0 975.0
21 19.07 С 3 10 км 5/0
[Cs]
+17.7 +3.5 39 +18 +18 1013.3 973.2
00 20.07 С 2 10 км ясно +11.8 +4.4 60 +11 +11 1013.2 972.6 +3.6 +19.5
03 20.07 С 2 10 км ясно +9.1 +7.0 87 +7 +7 1012.6 972.6
06 20.07 штиль 0 10 км ясно +9.1 +7.6 90 +8 +8 1012.1 972.4
09 20.07 штиль 0 10 км 9/0
[Ac As]
+7.3 +5.8 90 +6 +6 1011.6 971.7
12 20.07 штиль 0 10 км 10/9 600 м
[Sc Ac As]
+9.0 +6.9 87 +8 +8 1012.0 971.8 +6.1 +21.8
15 20.07 С 5 10 км 5/3 600 м
[Sc Ac As Cs]
+17.2 +12.8 75 +17 +19 1009.5 969.8
18 20.07 С 9 10 км 4/3 600 м
[Sc Cs]
+22.6 +14.6 61 +26 +27 жарко 1004.4 965.3
21 20.07 С 4 10 км 9/3 600 м
[Sc Cs]
+21.3 +16.2 73 +25 +25 комфорт 1002.2 962.9
00 21.07 С 5 10 км 9/9 600 м
[Sc]
+19.0 +17.0 88 +20 +20 1002.0 962.6 +9.0 +23.1
03 21.07 С 6 10 км 4/4 300 м
[St]
+17.9 +16.6 92 +17 +17 1000.4 961.6
06 21.07 С 5 10 км 9/0
[Cs]
+17.0 +16.3 96 +16 +16 997.3 959.0
09 21.07 С 6 10 км 10/10 180 м
[St]
+16.8 +16.5 98 +16 +16 995.7 957.3
12 21.07 С 6 10 км 10/3 210 м
[St Ac As]
+17.0 +16.7 98 +16 +16 997.2 958.6 +16.6 +19.1
15 21.07 С 3 8000 м дымка 10/1 600 м
[Sc Ac As]
+20.0 +17.6 86 +23 +25 комфорт 1000.1 961.4
18 21.07 Ю 9 6000 м пыльный позёмок 10/10 600 м
[Sc]
+17.6 +13.8 78 +16 +16 1002.3 963.4
21 21.07 Ю 6 10 км 10/10 750 м
[Sc]
+15.3 +3.1 44 +14 +14 1007.5 968.2
00 22.07 Ю 5 10 км 10/10 750 м
[Sc]
+14.1 +0.2 39 +13 +13 1012.6 973.0 +14.1 +20.5
03 22.07 Ю 4 10 км 10/0
[Ac As]
+12.8 -2.0 36 +11 +11 1015.6 976.1
06 22.07 Ю 2 10 км 9/0
[Ac As Ci sp]
+10.4 -2.3 41 +10 +10 1017.7 977.8
09 22.07 Ю 4 10 км 9/0
[Ac As Ci sp]
+9.2 -3.5 41 +7 +7 1018.4 978.2
12 22.07 ЮЗ 3 10 км 9/0
[Ac As Ci sp]
+9.2 -2.8 43 +8 +8 1021.0 980.6 +8.9 +14.1
15 22.07 Ю 5 10 км 9/0
[Ac As Cs]
+14.6 -6.1 23 +14 +16 1022.7 982.6
18 22.07 Ю 6 10 км 8/0
[Ac As Cs]
+14.6 -6.6 22 +13 +15 1021.3 981.0
21 22.07 Ю 4 10 км 9/0
[Ac und Ci sp]
+12.6 -2.7 34 +11 +11 1022.2 981.7
00 23.07 Ю 3 10 км 10/0
[Ac As]
+10.2 -1.2 45 +9 +9 1024.9 984.1 +9.2 +15.6
03 23.07 Ю 3 10 км 9/3 600 м
[Sc Ac As]
+9.0 -0.3 52 +7 +7 1026.1 985.6
06 23.07 Ю 3 10 км 10/1 600 м
[Sc Ac As]
+8.0 -0.4 55 +6 +6 1026.1 985.4
09 23.07 Ю 3 10 км 10/1 600 м
[Sc Ac As]
+8.0 -0.4 55 +6 +6 1025.5 984.8
12 23.07 Ю 2 10 км 10/3 600 м
[Sc Ac As]
+7.8 +0.9 62 +7 +7 1029.0 988.0 +6.8 +10.2
15 23.07 Ю 4 10 км {дождь} 9/4 600 м
[Sc Ac As]
+10.2 -1.5 44 +8 +9 1028.4 987.4
18 23.07 Ю 5 10 км {дождь} 10/6 600 м
[Sc Ac As]
+10.6 +0.7 50 +8 +9 1027.0 986.1
21 23.07 Ю 4 8000 м слаб. морось 10/6 270 м
[St As op]
+7.8 +3.6 75 +5 +5 1029.3 988.1
00 24.07 Ю 3 10 км {морось} 8/4 480 м
[St Ac As]
+6.4 +4.1 85 +4 +4 1031.5 990.1 +6.2 +10.6 0.0
03 24.07 Ю 2 10 км 8/3 600 м
[St Ac As]
+5.7 +4.5 92 +4 +4 1031.6 990.2

 

Местоположение метеостанции Пилар (Аргентина): широта -31.66 долгота -63.88 высота над уровнем моря 338 м.

В архиве по умолчанию представлена погода в Пиларе за последнюю неделю. Архивные данные за месяц целиком и за предыдущие месяцы, начиная с января 2011 года, Вы можете получить, выбрав интересующий диапазон дат из раскрывающегося списка и нажав кнопку "Ввод!".


*Определитесь, кто Вы:
робот инопланетянин человек

Внимание! Время в таблицах - всемирное. Для получения местного времени необходимо прибавить поправку, которая равна -3 ч.

Смотрите также архив погоды в соседних городах и на ближайших метеорологических станциях:

Погода в Кордове (Аргентина) (50 км)
Погода в Вилла Долорес (Аргентина) (122 км)
Погода в Рио-Куарто (Аргентина) (163 км)
Погода в Вилла де Мария дель Рио Секо (Аргентина) (197 км)
Погода в Маркос Хуарес (Аргентина) (200 км)
Погода в Вилья Рейнольдс (Аргентина) (270 км)
Погода в Сересе (Аргентина) (271 км)
Погода в Чамикале (Аргентина) (271 км)
Погода в Лабоулайе (Аргентина) (279 км)
Погода в Санта-Фе (Аргентина) (291 км)

Пояснения к столбцам:

Ветер - указаны скорость ветра в м/с - средняя за 10 мин, порывы в срок и между сроками (в фигурных скобках) и направление, откуда дует ветер: С - северный, СВ - северо-восточный, В - восточный, ЮВ - юго-восточный, Ю - южный, ЮЗ - юго-западный, З - западный, СЗ - северо-западный.
Видимость - горизонтальная дальность видимости в метрах или километрах. При видимости от 1 до 10 км при отсутствии осадков обычно наблюдается дымка, при ухудшении видимости до 1 км и менее - туман. В сухую погоду видимость может ухудшаться дымом, пылью или мглою.
Явления - указаны атмосферные явления, наблюдавшиеся в срок или в последний час перед сроком; фигурными скобками обозначены явления, наблюдавшиеся между сроками (за 1-3 часа до срока); квадратными скобками обозначены град или гололедные отложения с указанием их диаметра в мм.
Облачность - указаны через наклонную черту общая и нижняя облачность в баллах и высота нижней границы облаков в метрах; квадратными скобками обозначены формы облаков: Ci - перистые, Cs - перисто-слоистые, Cc - перисто-кучевые, Ac - высококучевые, As - высокослоистые, Sc - слоисто-кучевые, Ns - слоисто-дождевые, Cu - кучевые, Cb - кучево-дождевые. Подробнее классификацию облаков см. в Атласе облаков (PDF).
T - Температура воздуха - температура, измеренная на высоте 2 м над землей.
Td - Температура точки росы - температура, при понижении до которой содержащийся в воздухе водяной пар достигнет насыщения.
f - Относительная влажность воздуха - влажноcть воздуха, измеренная на высоте 2 м над землей.
Te - Эффективная температура - температура, которую ощущает одетый по сезону человек в тени. Характеристика душности погоды. При расчете учитывается влияние влажности воздуха и скорости ветра на теплоощущения человека.
Tes - Эффективная температура на солнце - температура, которую ощущает человек, с поправкой на солнечный нагрев. Характеристика знойности погоды. Зависит от высоты солнца над горизонтом, облачности и скорости ветра. Ночью, в пасмурную погоду, а также при ветре 12 м/с и более поправка равна нулю.
P - Атмосферное давление - приведенное к уровню моря атмосферное давление.
Po - Атмосферное давление - измеренное на уровне метеостанции атмосферное давление.
Tmin - Минимальная температура - минимум температуры воздуха на высоте 2 м над землей.
Tmax - Максимальная температура - максимум температуры воздуха на высоте 2 м над землей.
R - Количество осадков - Количество выпавших осадков за период времени, мм. При наведении курсора мыши на число - период времени, за который выпало указанное количество осадков.
R24 - Количество осадков - Количество выпавших осадков за 24 часа, мм.
S - Снежный покров - Высота снежного покрова, см. При наведении курсора мыши на число - состояние снежного покрова и степень покрытия местности в баллах.